Location: Newark
(42.9277°N, 71.8621°W)
Time: 17:14:35
(UTC+00:00)

SR - All Passes

Search period start: 06 June 2020 00:00
Search period end: 16 June 2020 00:00
Orbit: 582 x 874 km, 66.7° (Epoch: 05 June)

Date Brightness Start Highest point End Pass type
(mag) Time Alt. Az. Time Alt. Az. Time Alt. Az.
06 Jun - 02:23:10 10° NNW 02:26:58 28° NE 02:30:39 10° ESE visible
06 Jun - 04:05:11 10° NW 04:08:55 29° WSW 04:12:37 10° S visible
06 Jun - 16:54:48 10° SSE 16:58:20 18° ESE 17:01:42 10° ENE daylight
06 Jun - 18:34:45 10° SW 18:40:00 63° WNW 18:44:51 10° NNE daylight
06 Jun - 20:21:00 10° WNW 20:22:55 12° NW 20:24:48 10° NNW daylight
07 Jun - 01:34:13 10° N 01:36:53 16° NE 01:39:32 10° E visible
07 Jun - 03:15:08 10° NW 03:19:25 68° WSW 03:23:37 10° SSE visible
07 Jun - 17:45:01 10° SSW 17:50:19 67° ESE 17:55:11 10° NE daylight
07 Jun - 19:28:58 10° W 19:32:44 20° NW 19:36:19 10° N daylight
08 Jun - 02:25:29 10° NNW 02:29:44 54° NE 02:33:52 10° SE visible
08 Jun - 04:08:54 10° WNW 04:11:14 14° WSW 04:13:33 10° SW visible
08 Jun - 16:56:00 10° S 17:00:45 33° ESE 17:05:10 10° NE daylight
08 Jun - 18:37:59 10° WSW 18:42:45 35° NW 18:47:11 10° NNE daylight
09 Jun - 01:36:09 10° N 01:39:51 27° NE 01:43:28 10° ESE visible
09 Jun - 03:18:03 10° NW 03:21:52 32° WSW 03:25:38 10° S visible
09 Jun - 16:08:01 10° SSE 16:11:18 17° ESE 16:14:27 10° ENE daylight
09 Jun - 17:47:41 10° SW 17:52:56 67° WNW 17:57:46 10° NNE daylight
09 Jun - 19:33:41 10° WNW 19:35:48 12° NW 19:37:51 10° NNW daylight
10 Jun - 00:47:15 10° N 00:49:46 15° NE 00:52:14 10° ENE daylight
10 Jun - 02:28:03 10° NW 02:32:20 74° WSW 02:36:33 10° SSE visible
10 Jun - 16:58:01 10° SSW 17:03:15 63° ESE 17:08:05 10° NE daylight
10 Jun - 18:41:47 10° W 18:45:38 21° NW 18:49:17 10° N daylight
11 Jun - 01:38:26 10° NNW 01:42:38 50° NE 01:46:45 10° SE visible
11 Jun - 03:21:38 10° WNW 03:24:11 16° WSW 03:26:44 10° SW visible
11 Jun - 16:09:05 10° S 16:13:42 31° ESE 16:18:01 10° NE daylight
11 Jun - 17:50:52 10° WSW 17:55:40 37° NW 18:00:08 10° NNE daylight
12 Jun - 00:49:07 10° N 00:52:45 25° NE 00:56:16 10° ESE daylight
12 Jun - 02:30:56 10° NW 02:34:48 34° WSW 02:38:39 10° S visible
12 Jun - 15:21:15 10° SE 15:24:16 16° ESE 15:27:11 10° ENE daylight
12 Jun - 17:00:38 10° SW 17:05:52 71° WNW 17:10:41 10° NNE daylight
12 Jun - 18:46:24 10° WNW 18:48:40 13° NW 18:50:53 10° NNW daylight
13 Jun - 00:00:19 10° N 00:02:39 14° NE 00:04:56 10° ENE daylight
13 Jun - 01:40:57 10° NNW 01:45:15 80° WSW 01:49:30 10° SSE visible
13 Jun - 16:11:02 10° SSW 16:16:12 59° ESE 16:20:58 10° NE daylight
13 Jun - 17:54:37 10° W 17:58:32 22° NW 18:02:15 10° N daylight
14 Jun - 00:51:22 10° NNW 00:55:32 46° NE 00:59:38 10° SE daylight
14 Jun - 02:34:23 10° WNW 02:37:08 17° WSW 02:39:53 10° SSW visible
14 Jun - 15:22:10 10° S 15:26:39 29° ESE 15:30:51 10° NE daylight
14 Jun - 17:03:46 10° WSW 17:08:35 39° NW 17:13:04 10° NNE daylight
15 Jun - 00:02:06 10° N 00:05:37 24° NE 00:09:05 10° ESE daylight
15 Jun - 01:43:48 10° NW 01:47:44 37° WSW 01:51:39 10° S visible
15 Jun - 14:34:31 10° SE 14:37:15 14° ESE 14:39:53 10° ENE daylight
15 Jun - 16:13:35 10° SW 16:18:48 76° WNW 16:23:36 10° NNE daylight
15 Jun - 17:59:07 10° WNW 18:01:33 13° NW 18:03:55 10° N daylight
15 Jun - 23:13:23 10° N 23:15:31 13° NE 23:17:37 10° ENE daylight
